Погода в Койде

Россия / Архангельская область     66°22′42″N   42°32′22″E
темп.,
°C
ветер,
м/с
пор.,
м/с
влажн.,
%
обл.,
%
осадки,
мм/ч
давл.,
гПа
погр.,
м
11 мая, вт
вт1100:00+5юз6770100 0.0 101854
03:00+4ююз6690100 0.8 101755
06:00+3зюз6898100 0.3 101891
09:00+3зюз6795100 0.3 101970
12:00+4зюз559296 0.0 102059
15:00+4зюз3392100 0.0 102034
18:00+6ююз5599100 1.1 101936
21:00+7ю7896100 1.6 101754
12 мая, ср
ср1200:00+7зюз111691100 0.2 1017136
03:00+5зюз111697100 1.0 1018139
06:00+4зюз912100100 2.1 1019100
09:00+3з5510099 2.1 102140
12:00+3ссз3499100 0.0 102445
15:00+2ссв4598100 0.0 102658
18:00+2всв4598100 0.0 102748
21:00+2в5695100 0.1 102649
13 мая, чт
чт1300:00+3вюв5791100 0.0 102551
03:00+5юв66945 0.0 102338
06:00+7ююв66989 0.0 102132
09:00+9зюз778324 0.0 101947
12:00+7зюз897999 0.0 101958
15:00+8зюз9127358 0.0 101869
18:00+8зюз912770 0.0 101771
21:00+6зюз788553 0.0 101741
14 мая, пт
пт1400:00+6зюз55850 0.0 101719
03:00+7юз55815 0.0 101615
06:00+7зсз338589 0.0 101518
09:00+2ссз339886 0.1 101531
12:00+2ссв559992 0.1 101454
15:00+2с669997 0.2 101364
18:00+3ссв7109982 0.3 101386
21:00+3св569721 0.3 101353
15 мая, сб
сб1500:00+2ссв579898 0.0 101381
03:00+2св579794 0.0 101386
06:00+1св5797100 0.4 1014116
09:00+1св5697100 1.7 1015105
12:00+1св71097100 1.0 1016207
15:00+1св81196100 1.4 1018311
18:00+1св101493100 0.1 1018372
21:00+1всв101490100 0.3 1018342